Погода в Торопеце

Погода в Торопеце : погода сейчас, прогноз погоды и архив. Всё, что Вы хотите узнать о погоде в Торопеце!

Поиск расширенной информации на нашем сайте:

Другие новости

Новости СМИ2

Главная страница сайта

Новости сайта

03.07.2017

Напоминаем, что на нашем специализированном сайте Метеоцентр.Азия вы можете получить высокодетализированные автоматические прогнозы погоды по пунктам России, СНГ и мира в авиационном формате (включающие направление и скорость ветра, видимость, явления погоды, количество и форму облачности, нижнюю и верхнюю границу облачности).


Погода в Торопеце - сегодня

Время (UTC), дата Ветер
(°,м/с) 
Видим.   Явления Облачность Т
(°С)
Тd
(°С)
f(%) Тe
(°С)
Pmin
(гПа)
dP
(гПа)
Po
(мм)
O2
(г/м3)
Тmin Tmax R s Состояние
почвы
21 09.11.18 130 (ЮВ) 4000 м  морось  10/10 200 м 
[St]
+2.5 +2.2 98 +3  1024.3  0.2  751  299           
03 10.11.18 140 (ЮВ) 10 км  {дождь}  10/10 200 м 
[St]
+2.6 +2.3 98 +1  1023.7  -0.4  750  299  +2.3       
09 10.11.18 140 (ЮВ) 10 км    10/10 200 м 
[St]
+2.6 +2.1 96 +1  1025.3  0.6  751  300           
12 10.11.18 130 (ЮВ) 20000 м    10/10 600 м кучево-дожд. 
[Cb cap]
+2.2 +1.4 94 1025.7  0.4  752  300           
15 10.11.18 130 (ЮВ) 20000 м    10/10 600 м кучево-дожд. 
[Cb cap]
+1.3 +0.5 94 1027.1  1.3  753  302           
21 10.11.18 140 (ЮВ) 4{10}  20000 м    9/9 600 м 
[Sc]
+1.6 -0.6 85 -1  1029.8  1.4  755  302           
00 11.11.18 140 (ЮВ) 20000 м    8/8 600 м 
[Sc]
+1.8 -0.2 87 -1  1031.1  1.3  756  302           
03 11.11.18 140 (ЮВ) 4{10}  20000 м    9/9 600 м кучево-дожд. 
[Cb cap]
+1.6 +0.2 90 -1  1032.1  756  303  +1.3         
09 11.11.18 140 (ЮВ) 4{10}  20000 м    10/10 600 м кучево-дожд. 
[Cb cap]
+2.7 +0.5 85 +1  1034.8  1.2  758  303           
18 11.11.18 140 (ЮВ) 6-10{12}  20000 м  {ливн. осадки}  9/9 600 м кучево-дожд. 
[Cb cap]
+0.5 -2.6 80 -3  1037.3  1.5  760  306    +3  0.3     
21 11.11.18 150 (ЮВ) 5{13}  20000 м    9/9 600 м кучево-дожд. 
[Cb cap]
+0.1 -4.5 71 -3  1037.4  0.1  760  307           
03 12.11.18 170 (Ю) 4{13}  20000 м    10/10 600 м кучево-дожд. 
[Cb cap]
+0.1 -3.9 74 -2  1037  -0.2  760  307  +0.1         
06 12.11.18 150 (ЮВ) 5-10{13}  20000 м    9/9 600 м 
[Sc]
-1.2 -4.4 79 -4  1037.1  760  308  -1.2         
09 12.11.18 150 (ЮВ) 5{12}  20000 м    9/9 600 м 
[Sc]
-1.6 -5.1 77 -5  1037.3  0.2  760  309           
15 12.11.18 160 (Ю) 20000 м    9/9 600 м 
[Sc]
-0.8 -5.1 73 -3  1036.4  -0.3  759  307           
21 12.11.18 160 (Ю) 20000 м    10/10 600 м кучево-дожд. 
[Cb cap]
-1.4 -5.8 72 -4  1035.9  759  308           
03 13.11.18 170 (Ю) 4{10}  20000 м    10/10 600 м кучево-дожд. 
[Cb cap]
-1.1 -4.7 76 -4  1033.3  -1.4  757  307  -1.5         
06 13.11.18 180 (Ю) 5-10{14}  20000 м    10/10 600 м кучево-дожд. 
[Cb cap]
-1.2 -3.9 82 -4  1032  -1.2  756  306  -1.5         
15 13.11.18 180 (Ю) 20000 м    9/9 600 м 
[Sc]
+0.7 -3.9 71 -2  1027.5  -1.2  753  303      0.3     
21 13.11.18 180 (Ю) 20000 м    9/9 600 м 
[Sc]
+0.6 -3.6 73 -2  1023.8  -1.7  750  302           
03 14.11.18 170 (Ю) 4000 м  слаб. ливневой дождь [диам. гололёда 3 мм]  10/10 600 м кучево-дожд. 
[Cb cap]
-0.7 -1.4 95 -2  1021.3  -1.3  748  302  -0.7       
06 14.11.18 160 (Ю) 1000 м  ливневой снег [диам. гололёда 3 мм]  10/10 600 м кучево-дожд. 
[Cb cap]
-1.8 -2.1 98 -3  1020.8  -0.6  748  304  -1.8    11  неравномерный
мокрый или
старый снег
100% 
18 14.11.18 160 (Ю) 4000 м  слаб. ливневой снег [диам. гололёда 3 мм]  9/9 600 м кучево-дожд. 
[Cb cap]
-2.4 -2.8 97 -3  1024.5  1.3  751  305    -1.8     
03 15.11.18 120 (ЮВ) 20000 м  [диам. гололёда 3 мм]  8/8 600 м 
[Sc]
-2.6 -2.9 98 -2  1029.6  1.8  754  307  -2.7       
06 15.11.18 110 (В) 20000 м  [диам. гололёда 3 мм]  9/6 600 м средняя, верхняя 
[Sc|Ac trans|Ci fib]
-3.4 -3.6 99 -3  1032.1  2.5  756  309  -3.7    0.2  12  равномерный
сухой снег
100% 
Время (UTC), дата Ветер
(°,м/с) 
Видим.   Явления Облачность Т
(°С)
Тd
(°С)
f(%) Тe
(°С)
Pmin
(гПа)
dP
(гПа)
Po
(мм)
O2
(г/м3)
Тmin Tmax R s Состояние
почвы

Для получения пояснительной информации подведите курсор к названию столбца.

ПОГОДА в Торопеце - архив

Всё, что Вы хотите узнать о погоде в Торопеце - удобно и подробно!

Выберите нужную дату (начиная с 1 января 2015* года) и нажмите кнопку "Найти".
Будут отображены архивные сводки погоды по пункту Торопец, начиная с указанной даты.


Отображать данные в формате CSV (для использования в таблицах Excel)


Внимание! Наш архив погоды предназначен исключительно для личного некоммерческого использования в познавательных целях. Если Вам необходимы официальные справки о состоянии погоды (для производственных, юридических, коммерческих и т.п. целей), обращайтесь в органы Росгидромета.

*Примечание: данная дата относится к архиву по метеостанциям СССР (Россия, СНГ, Балтия).
Архив по метеостанциям Зарубежной Европы и Азии (кроме Китая) хранится 10 дней, по другим регионам земного шара (Китай, Африка, Америка, Австралия, Океания) - 1 день.

Торопец - район местоположения метеостанции


Название, широта, долгота, высота метеостанции:
Торопец 56.5°ш. 31.6°д. 187 м над ур. моря [Российская Федерация]

Дополнительная информация

В oтличие oт бoльшинства пoгoдных сайтoв мы публикуем пoдрoбную метеoинфoрмацию в детальнoм прoфессиoнальнoм фoрмате.

Характеристики температуры и влажнoсти вoздуха измеряются на высoте 2 м в тени вдали oт зданий и деревьев.
Скoрoсть ветра измеряется на высoте 10 м (на урoвне рoста челoвека скoрoсть ветра ниже в 1.5-2 раза). Если метеoстанция нахoдится в гoрoде или в лесу, тo скoрoсть ветра занижена на 2-4 м/с пo сравнению с oткрытым местoм. Скoрoсть ветра над акватoриями крупных рек и oзёр, а также на вершинах хoлмoв на 2-5 м/с выше, чем в oбычных услoвиях.
Атмoсфернoе давление в разных тoчках местнoсти мoжет значительнo oтличаться oт давления на метеoстанции, в зависимoсти oт услoвий рельефа (при пoдъёме на 10 м давление пoнижается примернo на 1 мм рт.ст.).